Location: Aubvillers
(49.7137°N, 2.4820°E)
Time: 07:07:13
(UTC+00:00)

Daily predictions for brighter satellites

Satellite Brightness Start Highest point End
(mag) Time Altitude Azimuth Time Altitude Azimuth Time Altitude Azimuth
USA 186 2.6 18:43:42 10° SE 18:46:28 29° ENE 18:49:16 10° N
SL-16 R/B 3.2 18:45:28 10° NNW 18:50:27 30° NE 18:55:25 10° ESE
BlueWalker 3 4.0 18:53:01 10° SSE 18:54:23 11° SE 18:55:43 10° ESE
BREEZE M DEB (TANK) 1.7 18:51:39 10° WSW 18:54:28 76° S 18:56:43 10° E
BREEZE-M DEB (TANK) 3.3 18:47:19 10° W 18:55:38 89° SSW 18:58:35 10° E
Cosmos 1674 4.1 18:52:21 10° NNW 18:55:54 42° W 18:59:26 10° SSW
Landsat 7 4.0 18:53:29 10° SE 18:58:02 51° ENE 19:02:36 10° N
Cosmos 2233 Rocket 4.1 18:53:09 10° N 18:59:13 56° ENE 19:05:18 10° SSE
Cosmos 1867 3.6 18:55:08 10° SSW 19:00:31 68° SE 19:05:58 10° NE
Cosmos 1864 Rocket 4.5 18:55:40 10° N 19:01:53 88° E 19:08:01 10° S
CSL-04 Rocket 3.9 18:59:31 10° SE 19:04:54 55° ENE 19:10:17 10° N
Cosmos 1850 Rocket 4.3 19:02:21 10° NNW 19:07:43 74° WSW 19:13:01 10° SSE
USA 215 3.4 19:02:26 10° ENE 19:09:01 84° NNW 19:15:33 10° WSW
JB-3 4.4 19:07:16 10° NNE 19:11:22 87° ESE 19:15:28 10° SSW
Cosmos 1110 Rocket 3.9 19:07:42 10° S 19:12:50 65° ESE 19:17:58 10° NNE
SL-4 R/B 3.0 19:13:56 10° SSW 19:18:08 33° SE 19:21:28 14° E
Cosmos 1674 Rocket 4.2 19:14:36 10° N 19:18:34 34° ENE 19:21:46 14° SE
Cosmos 1733 Rocket 3.3 19:16:23 10° SSE 19:20:28 43° E 19:24:34 10° NNE
Cosmos 1766 3.5 19:18:46 10° SSE 19:22:22 44° E 19:26:01 10° NNE
Cosmos 2237 Rocket 2.4 19:16:51 10° NNW 19:22:30 74° WSW 19:28:06 10° SSE
Resurs 01 Rocket 2.2 19:19:50 14° SE 19:23:14 37° ENE 19:27:19 10° N
Cosmos 2061 Rocket 4.2 19:17:29 10° NNW 19:23:58 80° W 19:30:21 10° S
ATLAS CENTAUR R/B 4.4 19:08:16 10° SW 19:25:26 83° SE 19:33:22 10° ENE
Cosmos 1725 Rocket 4.4 19:19:27 10° NNW 19:25:36 68° W 19:31:45 10° S
Cosmos 1331 Rocket 3.9 19:20:40 10° SSW 19:25:48 76° ESE 19:31:00 10° NNE
Cosmos 1378 Rocket 4.0 19:23:00 10° N 19:27:14 43° ENE 19:30:39 15° SE
CZ-4 R/B 2.7 19:24:46 10° SSW 19:28:24 39° W 19:32:06 10° NNW
Resurs 1-3 3.5 19:24:18 10° SSE 19:28:40 85° ENE 19:33:05 10° NNW
USA 281 3.7 19:24:47 10° NNE 19:31:18 66° WNW 19:37:47 10° SW
Intercosmos 25 Rocket 4.3 19:24:56 10° N 19:32:29 69° ENE 19:36:59 10° SSE
Cosmos 1805 3.8 19:28:59 10° SSW 19:32:45 60° WNW 19:36:33 10° N
Cosmos 1452 Rocket 3.9 19:27:40 10° SSW 19:32:55 69° WNW 19:38:14 10° NNE
Cosmos 968 Rocket 3.4 19:28:32 10° NNW 19:33:44 82° ENE 19:38:32 12° SSE
SPOT 1/Viking Rocket 3.6 19:30:09 11° SSE 19:35:04 59° ENE 19:40:13 10° N
Landsat 5 3.8 19:36:31 10° NNE 19:40:10 38° E 19:43:41 11° SSE
NOSS 3-4 (A) 3.4 19:37:52 10° SSW 19:43:16 49° ESE 19:49:07 10° NE
NOSS 3-4 (C) 3.4 19:38:01 10° SSW 19:43:23 49° ESE 19:49:13 10° NE
ERS-1 Rocket 4.5 19:42:34 17° E 19:43:59 19° ENE 19:47:30 10° NNE
FALCON 9 R/B 4.4 19:18:24 10° WSW 19:44:10 41° SSW 19:50:26 18° SE
CSL-04 Debris 4.5 19:39:21 10° S 19:44:45 70° WSW 19:50:13 10° NNW
USA 267 4.2 19:39:33 10° SSE 19:45:41 41° SW 19:51:50 10° WNW
Okean-O 2.7 19:46:19 10° SSE 19:50:44 82° WSW 19:55:11 10° NNW
SJ 16-02 2.3 19:48:02 10° N 19:52:00 32° ENE 19:53:11 27° E
Okean O Rocket 3.4 19:48:08 10° SSW 19:52:04 31° W 19:56:01 10° NNW
Cosmos 1908 Rocket 4.2 19:51:55 29° ESE 19:53:05 34° E 19:57:08 10° NNE
Cosmos 1340 Rocket 4.2 19:50:04 10° NNE 19:53:10 22° ENE 19:53:10 22° ENE
Cosmos 2221 Rocket 3.5 19:48:52 10° N 19:53:18 88° ENE 19:56:56 15° S
Cosmos 1943 4.4 19:48:38 10° NNW 19:53:27 28° NE 19:55:47 21° E
Lacrosse 5 rocket 1.6 19:50:17 10° WSW 19:54:33 71° NNW 19:58:04 14° NE
ATLAS 3B R/B 4.1 19:49:13 10° NW 19:55:45 32° NNE 20:01:27 14° ENE
CZ-4C R/B 3.1 19:49:01 10° NW 19:55:51 63° NE 20:00:54 25° ESE
SPOT 5 3.9 19:55:00 24° E 19:56:09 27° ENE 20:00:16 10° N
Ariane Rocket 3.6 19:59:14 30° ESE 20:00:56 38° ENE 20:05:36 10° N
Cosmos 482 Debris 4.4 19:56:00 10° WNW 20:01:36 83° SSW 20:02:57 41° ESE
SWARM A 4.5 19:58:58 10° S 20:02:24 73° W 20:05:54 10° N
Cosmos 2297 Rocket 2.5 19:57:59 10° SW 20:03:37 68° WNW 20:09:17 10° NNE
Cosmos 1464 Rocket 4.1 19:58:03 10° N 20:04:23 60° ENE 20:08:13 24° SSE
Cosmos 1271 Rocket 2.6 20:00:42 10° SSW 20:04:27 80° WNW 20:08:11 10° N
Meteor 1-15 Rocket 4.2 19:59:22 10° S 20:05:07 66° E 20:10:58 10° NNE
Meteor 1-24 Rocket 3.9 20:01:31 10° N 20:07:28 66° ENE 20:10:55 26° SSE
Cosmos 2346 Rocket 4.4 20:02:45 10° S 20:08:49 65° E 20:15:00 10° NNE
ISS -3.8 20:06:52 10° WNW 20:10:11 68° SSW 20:10:26 64° S
GEOS 3 Rocket 4.0 20:05:08 10° NE 20:10:29 68° NW 20:15:50 10° SW
PKM 3.6 20:07:00 10° WNW 20:10:38 82° SSW 20:11:25 51° SE
Cosmos 1975 Rocket 4.1 20:06:53 10° N 20:10:48 29° ENE 20:10:48 29° ENE
Meteor 2-15 4.4 20:05:22 10° N 20:11:32 74° ENE 20:15:21 24° SSE
Spot 2 Rocket 4.4 20:10:39 29° E 20:11:34 30° ENE 20:15:59 10° N
Cosmos 2082 3.9 20:06:59 10° S 20:12:15 43° ESE 20:17:32 10° NE
Cosmos 1302 Rocket 4.0 20:08:15 10° SSW 20:13:34 89° WNW 20:18:54 10° NNE
Cosmos 1891 Rocket 4.4 20:07:59 10° N 20:14:12 86° E 20:18:57 19° S
Meteor 2-8 Rocket 4.4 20:08:49 10° N 20:14:59 71° ENE 20:18:27 27° SSE
Cosmos 2219 3.0 20:12:43 10° SSW 20:18:19 79° ESE 20:23:58 10° NNE
MetOp-A 3.9 20:16:26 34° SSE 20:18:46 74° ENE 20:23:51 10° NNW
Meteor 2-15 Rocket 4.4 20:13:21 10° N 20:19:30 66° ENE 20:22:19 33° SSE
Cosmos 1470 2.6 20:17:56 32° S 20:19:39 86° E 20:23:35 10° N
Cosmos 2227 Rocket 2.3 20:14:22 10° SSW 20:20:03 79° WNW 20:25:46 10° NNE
Cosmos 1782 Rocket 4.4 20:28:08 34° ENE 20:28:08 34° ENE 20:31:12 10° NNE
Geosat 4.3 20:29:29 34° S 20:31:37 64° WSW 20:36:38 10° NW
ADEOS Rocket 3.7 20:29:34 36° ESE 20:31:41 47° ENE 20:38:33 10° N
BlueWalker 3 3.2 20:28:27 10° SW 20:30:39 30° SSW 20:30:39 30° SSW
SL-16 R/B 2.5 20:29:21 10° NW 20:34:59 62° WSW 20:37:33 32° S
Aureole 1 Rocket 4.2 20:33:15 10° N 20:36:44 27° NE 20:36:44 27° NE
Meteor 2-19 Rocket 4.4 20:35:49 42° SSE 20:37:37 58° E 20:43:36 10° NNE
Cosmos 1816 Rocket 4.4 20:40:05 43° SSE 20:41:59 64° E 20:48:03 10° NNE
H-2A R/B 2.4 20:44:38 80° SE 20:44:50 83° ENE 20:49:19 10° NNW
Cosmos 1503 Rocket 3.9 20:39:57 10° NNW 20:45:13 68° ENE 20:45:51 61° ESE
Cosmos 1634 Rocket 4.3 20:39:26 10° N 20:45:30 45° ENE 20:46:14 43° E
Terra 2.2 20:48:27 46° NE 20:48:27 46° NE 20:52:39 10° N
MetOp-B 4.2 20:46:51 45° S 20:48:33 77° WSW 20:53:57 10° NNW
SPOT 3 Rocket 3.4 20:48:30 64° ESE 20:49:07 71° ENE 20:54:21 10° N
Meteor 2-5 Rocket 4.3 20:45:33 10° NNW 20:51:15 57° W 20:54:32 26° SSW
Cosmos 1992 Rocket 3.9 20:47:39 17° SSW 20:51:40 88° WNW 20:56:54 10° NNE
USA 215 4.0 20:45:42 11° ENE 20:51:43 50° N 20:57:59 10° W
Cosmos 220 Rocket 4.1 20:48:17 10° NNW 20:52:24 68° WSW 20:52:24 68° WSW
Cosmos 1486 Rocket 4.2 20:50:21 10° NNW 20:55:38 67° WSW 20:56:42 53° SSW
SL-4 R/B 2.3 20:52:32 10° WSW 20:56:46 72° WSW 20:56:46 72° WSW
Resurs 01 Rocket 3.4 20:57:22 17° SW 20:59:48 28° W 21:03:36 10° NW
SME Rocket 4.4 20:59:14 48° ESE 21:01:03 60° ENE 21:06:37 10° N
Cosmos 2263 Rocket 2.1 21:02:47 64° ENE 21:02:47 64° ENE 21:07:46 10° NNE
Cosmos 1703 4.4 20:59:50 10° N 21:02:20 38° N 21:02:20 38° N
Cosmos 2034 Rocket 4.1 21:01:52 10° NNW 21:08:02 72° W 21:09:53 46° SSW
ATLAS 2AS CENTAUR R/B 3.9 21:18:46 29° ENE 21:18:46 29° ENE 21:22:26 10° NE
Cosmos 1025 Rocket 3.7 21:12:06 10° NNW 21:15:46 52° WNW 21:15:46 52° WNW
H-2A R/B 4.3 21:13:15 10° NNE 21:14:08 15° NNE 21:14:08 15° NNE
Tsikada Rocket 3.8 21:18:38 75° SSE 21:19:09 83° E 21:25:20 10° N
Cosmos 1777 Rocket 4.0 21:14:07 10° NNW 21:18:55 73° N 21:18:55 73° N
ERS-1 Rocket 3.1 21:22:31 72° WNW 21:22:31 72° WNW 21:27:17 10° NNW
SJ 16-02 2.8 21:26:32 10° NW 21:30:05 32° W 21:30:05 32° W
Lacrosse 5 rocket 3.1 21:30:11 10° WNW 21:33:25 30° NNW 21:33:25 30° NNW
SPOT 5 3.7 21:34:11 45° W 21:34:11 45° W 21:38:43 10° NNW
NOSS 3-4 (A) 4.4 21:28:42 10° WSW 21:34:13 45° NNW 21:40:19 10° NE
NOSS 3-4 (C) 4.3 21:28:50 10° WSW 21:34:19 45° NNW 21:40:25 10° NE
Cosmos 1943 3.4 21:32:22 10° NNW 21:37:35 65° W 21:37:35 65° W
Cosmos 1603 3.8 21:33:14 10° NNW 21:38:29 74° NW 21:38:29 74° NW
Ariane Rocket 4.2 21:39:24 33° WSW 21:39:55 34° W 21:44:32 10° NNW
ATLAS CENTAUR R/B 4.3 21:28:51 10° W 21:41:02 53° NNW 21:45:00 23° NE
CZ-4C R/B 3.6 21:37:36 10° NW 21:44:30 46° WSW 21:46:05 41° SSW
ATLAS 3B R/B 3.0 21:40:18 10° NW 21:47:51 67° NE 21:48:41 63° ENE
Cosmos 2279 Rocket 4.0 21:42:39 10° N 21:48:21 73° NNE 21:48:21 73° NNE
Spot 2 Rocket 4.4 21:50:49 43° W 21:50:49 43° W 21:55:16 10° NNW
ARIANE 5 R/B 4.4 22:00:53 30° NNW 22:00:53 30° NNW 22:03:08 10° NNW
Cosmos 1833 Rocket 4.3 22:02:35 10° NNW 22:06:52 25° NE 22:06:52 25° NE
ADEOS Rocket 4.0 22:16:30 40° WSW 22:17:17 41° W 22:24:00 10° NNW
Timation 2 Rocket 4.4 22:21:41 56° N 22:21:41 56° N 22:26:51 10° NNE
Terra 3.9 22:27:12 22° WNW 22:27:12 22° WNW 22:29:49 10° NW
USA 215 3.9 22:33:00 46° NE 22:34:08 51° N 22:40:26 10° WNW
Cosmos 2344 4.0 22:29:23 10° NW 22:37:59 82° SW 22:38:57 75° S
NOSS 3-1 (C) 4.0 22:32:33 10° NW 22:39:12 78° NNW 22:39:12 78° NNW
Cosmos 2263 Rocket 4.0 22:44:18 20° W 22:46:39 27° NW 22:51:21 10° NNE
Cosmos 1844 Rocket 4.3 22:56:38 27° NNE 22:56:38 27° NNE 22:59:07 10° NNE
ATLAS 2AS CENTAUR R/B 3.2 23:06:05 60° NW 23:06:23 60° NW 23:13:37 10° NE
USA 229 DEB 4.2 23:13:05 10° NW 23:19:35 60° NNE 23:19:35 60° NNE
USA 229 4.2 23:13:11 10° NW 23:19:43 60° NNE 23:19:43 60° NNE
ATLAS 3B R/B 4.1 23:31:25 10° NW 23:35:56 32° W 23:35:56 32° W
Cosmos 2082 Rocket 3.8 23:43:12 10° NNW 23:46:25 31° N 23:46:25 31° N
Cosmos 1833 Rocket 4.4 23:46:06 10° NNW 23:48:34 27° NNW 23:48:34 27° NNW
